Arden, NC

12:18 AM EST on December 08, 2016 (GMT -0500)
Asheville Regional

Weather History for KAVL - October, 2006

Change the Weather History Date:

Tuesday, October 24, 2006

  Actual Average Record
Temperature  
Mean Temperature 36 °F 54 °F  
Max Temperature 43 °F 66 °F 85 °F (1939)
Min Temperature 28 °F 42 °F 22 °F (1904)
Degree Days  
Heating Degree Days 29 11  
Month to date heating degree days 230 191  
Since 1 July heating degree days 298 248  
Cooling Degree Days 0 0  
Month to date cooling degree days 4 7  
Year to date cooling degree days 845 859  
Moisture  
Dew Point 22 °F    
Average Humidity 61    
Maximum Humidity 78    
Minimum Humidity 43    
Precipitation  
Precipitation 0.00 in 0.09 in 2.56 in (1918)
Month to date precipitation 2.11 2.27  
Year to date precipitation 38.31 37.69  
Snow  
Snow 0.00 in 0.00 in 0.50 in (1923)
Month to date snowfall 0.0 0.0  
Since 1 July snowfall 0.0 0.0  
Since 1 September snowfall 0.0 0.0  
Snow Depth -    
Sea Level Pressure  
Sea Level Pressure 30.10 in    
Wind  
Wind Speed 10 mph (NNW)    
Max Wind Speed 23 mph    
Max Gust Speed 30 mph    
Visibility 10 miles    
Events      
T = Trace of Precipitation, MM = Missing Value Source: NWS Daily Summary

Daily Weather History Graph

Daily Weather History Graph

Search for Another Location

Airport or City:

Trip Planner

Search our weather history database for the weather conditions in past years. The results will help you decide how hot, cold, wet, or windy it might be!

Date:

Astronomy

Oct. 24, 2006 Rise Set
Actual Time 7:44 AM EDT 6:43 PM EDT
Civil Twilight 7:18 AM EDT 7:09 PM EDT
Nautical Twilight 6:48 AM EDT 7:39 PM EDT
Astronomical Twilight 6:19 AM EDT 8:09 PM EDT
Moon 10:10 AM EDT (10/24) 7:55 PM EDT (10/24)
Length of Visible Light 11h 51m
Length of Day
10h 59m
Waxing Crescent, 6% of the Moon is Illuminated
Oct 24
Waxing Crescent
Oct 29
First Quarter
Nov 5
Full
Nov 12
Last Quarter
Nov 20
New

Hourly Weather History & Observations

Time (EDT) Temp. Windchill Dew Point Humidity Pressure Visibility Wind Dir Wind Speed Gust Speed Precip Events Conditions
12:54 AM 34.0 °F 28.8 °F 23.0 °F 64% 30.03 in 10.0 mi NNE 5.8 mph - N/A   Scattered Clouds
1:54 AM 34.0 °F 31.0 °F 23.0 °F 64% 30.04 in 10.0 mi North 3.5 mph - N/A   Mostly Cloudy
2:54 AM 36.0 °F 29.0 °F 23.0 °F 59% 30.03 in 10.0 mi NNW 9.2 mph - N/A   Overcast
3:54 AM 35.1 °F 30.1 °F 23.0 °F 61% 30.02 in 10.0 mi NNW 5.8 mph - N/A   Overcast
4:54 AM 34.0 °F 27.2 °F 23.0 °F 64% 30.03 in 10.0 mi NW 8.1 mph - N/A   Overcast
5:54 AM 30.9 °F - 24.1 °F 76% 30.05 in 10.0 mi Calm Calm - N/A   Mostly Cloudy
6:54 AM 30.9 °F - 25.0 °F 79% 30.06 in 10.0 mi Calm Calm - N/A   Mostly Cloudy
7:54 AM 34.0 °F 28.8 °F 23.0 °F 64% 30.06 in 10.0 mi NNW 5.8 mph - N/A   Overcast
8:54 AM 34.0 °F 26.6 °F 24.1 °F 67% 30.07 in 10.0 mi NW 9.2 mph - N/A   Clear
9:54 AM 37.0 °F 30.4 °F 23.0 °F 57% 30.09 in 10.0 mi NNW 9.2 mph - N/A   Scattered Clouds
10:54 AM 37.9 °F 29.6 °F 24.1 °F 57% 30.10 in 10.0 mi NNW 13.8 mph - N/A   Overcast
11:54 AM 37.9 °F 29.6 °F 23.0 °F 55% 30.12 in 10.0 mi North 13.8 mph 20.7 mph N/A   Overcast
12:54 PM 42.1 °F 32.8 °F 21.0 °F 43% 30.11 in 10.0 mi NNW 21.9 mph 29.9 mph N/A   Partly Cloudy
1:54 PM 42.1 °F 33.9 °F 21.0 °F 43% 30.11 in 10.0 mi NNW 17.3 mph 20.7 mph N/A   Clear
2:54 PM 42.1 °F 34.9 °F 21.0 °F 43% 30.10 in 10.0 mi North 13.8 mph 21.9 mph N/A   Clear
3:54 PM 42.1 °F 35.7 °F 21.0 °F 43% 30.11 in 10.0 mi North 11.5 mph - N/A   Clear
4:54 PM 41.0 °F 33.1 °F 21.0 °F 45% 30.12 in 10.0 mi North 15.0 mph 23.0 mph N/A   Clear
5:54 PM 39.9 °F 32.1 °F 21.0 °F 47% 30.14 in 10.0 mi North 13.8 mph - N/A   Clear
6:54 PM 37.0 °F 28.9 °F 21.0 °F 52% 30.15 in 10.0 mi North 12.7 mph 21.9 mph N/A   Clear
7:54 PM 35.1 °F 26.9 °F 21.0 °F 57% 30.17 in 10.0 mi NNW 11.5 mph - N/A   Clear
8:54 PM 33.1 °F 25.5 °F 21.9 °F 64% 30.18 in 10.0 mi NNW 9.2 mph - N/A   Clear
9:54 PM 32.0 °F 23.6 °F 21.9 °F 66% 30.19 in 10.0 mi NNW 10.4 mph - N/A   Clear
10:54 PM 30.9 °F 23.5 °F 21.9 °F 69% 30.20 in 10.0 mi NNW 8.1 mph - N/A   Clear
11:54 PM 30.0 °F 24.1 °F 21.9 °F 72% 30.22 in 10.0 mi NNW 5.8 mph - N/A   Clear